Flag for Japan Weather past 2 weeks in Utsunomiya, Japan

Now
59 °F

Cool.


Feels Like: 58 °F
Forecast: 38 / 66 °F
Wind: 8 mph from South

Location: Mito

Current Time: Mar 29, 2015 at 7:46:28 PM

Latest Report: Mar 29, 2015 at 7:00 PM


Visibility: N/A

Pressure: 29.87 "Hg

Humidity: 69%

Dew point: 49 °F

Location of UtsunomiyaLocation

Historic Weather in Utsunomiya — Graph

°F

Utsunomiya temperature yesterday

Maximum temperature yesterday: 64 °F (at 4:00 PM)
Minimum temperature yesterday: 37 °F (at 5:00 AM)
Average temperature yesterday: 51 °F

Past Weeks' High & Low Weather Summary

 TemperatureHumidityPressure
High69 °F (Mar 17, 2:00 PM)98% (Mar 20, 1:00 AM)30.48 "Hg (Mar 20, 1:00 AM)
Low31 °F (Mar 26, 4:00 AM)11% (Mar 27, 3:00 PM)29.72 "Hg (Mar 19, 2:00 PM)
Average48 °F66%30.09 "Hg
* Reported Mar 14 6:00 PM — Mar 29 6:00 PM, Utsunomiya, Weather by CustomWeather, © 2015

Note: Actual official high and low records may vary slightly from our data, if they occured in-between our weather recording intervals... More about our weather records

Advertising

Utsunomiya weather history for previous 24 hours

 ConditionsComfort  
Time TempWeatherWind HumidityBarometerVisibility
6:00 PM
Sun, Mar 29
62 °FCool.8 mph61%29.90 "HgN/A
5:00 PM63 °FMild.9 mph63%29.87 "HgN/A
4:00 PM65 °FMild.6 mph59%29.88 "HgN/A
3:00 PM65 °FOvercast.8 mph53%29.86 "Hg9 mi
2:00 PM67 °FMild.8 mph41%29.90 "HgN/A
1:00 PM68 °FMild.8 mph28%29.93 "HgN/A
11:00 AM68 °FMild.7 mph34%29.96 "HgN/A
10:00 AM63 °FMild.3 mph45%29.98 "HgN/A
9:00 AM56 °FPassing clouds.3 mph54%30.01 "Hg6 mi
8:00 AM49 °FCool.1 mph70%30.02 "HgN/A
7:00 AM42 °FQuite cool.2 mph86%30.03 "HgN/A
5:00 AM39 °FChilly.3 mph93%30.03 "HgN/A
4:00 AM40 °FChilly.3 mph92%30.03 "HgN/A
3:00 AM40 °FClear.2 mph93%30.01 "Hg9 mi
2:00 AM42 °FQuite cool.1 mph94%30.01 "HgN/A
1:00 AM43 °FQuite cool.3 mph91%30.03 "HgN/A
12:00 AM45 °FQuite cool.3 mph89%30.03 "HgN/A
11:00 PM
Sat, Mar 28
45 °FCool.3 mph89%30.03 "HgN/A
10:00 PM47 °FCool.2 mph87%30.04 "HgN/A
9:00 PM51 °FClear.3 mph78%30.05 "Hg9 mi
8:00 PM52 °FCool.1 mph78%30.04 "HgN/A
7:00 PM53 °FCool.2 mph72%30.02 "HgN/A
Weather by CustomWeather, © 2015

See weather overviewHow to use our weather pages